Temp
2 2 1 2 2 2 2 2 2 2 2 2 2 2 3 3 3 3 3 3 3 3 3 5 6 5 4 4 6 6 7 6 5 7 8 7 8 7 8 9 7 7 7 6 7 7 7 9 10 10 7 4 4 3
2 2 2 2 2 2 2 2 2 2 2 2 2 2 3 3 3 3 2 3 3 3 4 4 5 6 6 5 4 5 6 6 6 7 5 6 6 6 7 7 7 8 6 6 7 7 7 6 8 5 4 4 3 2
2 2 1 1 2 2 2 2 2 2 2 2 2 2 2 2 3 3 2 2 2 3 3 3 4 5 5 5 5 5 6 7 5 5 5 6 8 6 6 7 7 6 5 4 7 6 5 5 4 4 4 3 3 3
1 1 1 1 1 1 1 1 1 1 2 2 2 2 2 2 2 2 1 1 2 3 3 3 4 4 5 4 4 5 5 6 6 6 6 6 7 6 7 8 6 5 6 5 5 4 4 4 4 3 2 3 2 2
1 1 1 1 1 1 1 1 1 1 1 1 2 2 2 2 2 2 2 2 2 3 3 4 4 5 5 4 5 6 5 5 5 6 5 7 5 6 5 6 4 5 5 4 4 4 4 4 2 3 2 2 2 0
1 1 1 1 1 1 1 1 1 1 2 2 2 2 2 2 2 2 1 3 2 2 3 4 4 4 3 3 6 6 6 4 3 4 4 4 5 7 5 6 7 6 5 6 6 5 4 3 3 3 1 1 0 -1
1 1 1 1 1 1 1 1 1 1 2 2 2 2 2 2 2 2 3 3 3 3 2 3 3 3 3 3 3 4 4 3 4 3 5 5 5 4 4 8 7 6 5 4 4 4 3 3 1 1 -0 -1 -2 -3
1 1 1 1 1 1 1 1 1 2 2 2 2 2 2 2 2 2 2 2 3 4 4 4 4 4 2 3 4 3 3 4 4 4 3 5 5 4 6 5 5 4 4 4 4 4 4 1 0 -1 -2 -2 -3 -3
1 1 0 0 0 1 1 1 1 2 2 1 1 2 2 2 2 3 3 3 4 4 4 3 4 5 3 3 4 4 4 5 3 3 5 5 5 6 7 5 4 4 5 2 2 2 1 0 -1 -2 -2 -2 -3 -4
3 2 2 1 0 0 1 1 1 1 2 2 2 1 2 3 3 4 3 3 3 4 2 3 3 4 4 4 3 4 3 4 5 5 4 4 5 5 5 5 4 3 2 3 2 1 0 -1 -1 -2 -2 -2 -3 -4
4 4 4 2 1 1 1 1 1 2 2 3 1 2 3 4 4 2 3 3 3 3 2 3 3 5 4 5 4 3 1 3 4 6 5 5 5 5 4 3 3 3 3 3 4 3 2 1 -1 -2 -3 -3 -4 -5
3 4 4 1 1 1 2 2 2 3 3 3 3 3 3 3 3 3 2 2 3 5 3 3 4 4 4 3 4 3 3 1 6 3 2 3 3 3 3 3 2 1 1 1 1 0 -0 -0 -1 -2 -3 -4 -5 -6
2 2 2 2 2 2 2 2 3 4 4 3 3 2 3 2 -0 2 1 3 1 3 2 3 3 3 4 3 1 1 2 1 3 0 5 5 3 2 1 0 -0 -0 -0 -1 -2 -2 -2 -3 -3 -3 -4 -6 -6 -7
2 2 2 2 2 2 2 4 5 5 5 0 1 1 1 1 2 2 3 4 3 3 4 4 3 4 1 2 1 2 2 3 1 2 5 2 2 1 0 0 0 -1 -2 -3 -2 -3 -3 -4 -6 -5 -5 -6 -6 -9
3 3 3 3 3 3 5 5 6 6 2 0 1 1 -1 -0 -0 1 1 1 2 4 4 3 3 3 2 1 1 2 3 2 4 3 1 -1 1 0 -1 -0 -1 -2 -5 -5 -5 -6 -7 -7 -8 -9 -7 -7 -7 -8
3 3 4 4 4 5 5 5 5 5 0 0 1 2 3 3 3 -3 -2 0 2 1 3 3 3 1 1 1 2 2 3 3 1 -1 -2 -1 -0 -1 -1 -2 -4 -5 -6 -8 -7 -8 -8 -8 -9 -9 -9 -8 -8 -9
4 3 5 5 5 5 5 5 4 0 -0 1 2 2 2 3 3 2 -0 -0 -0 2 1 2 2 4 2 1 2 3 0 -1 1 -1 -3 -1 -1 -3 -4 -6 -7 -7 -8 -9 -9 -8 -9 -8 -8 -10 -12 -10 -9 -9
2 2 4 4 6 5 4 4 0 1 2 1 2 1 1 1 1 1 1 -0 2 2 3 4 2 4 2 3 1 -1 0 -1 -3 -3 -5 -3 -4 -4 -4 -6 -7 -7 -9 -9 -9 -9 -10 -10 -10 -10 -10 -10 -10 -10
5 6 6 6 6 5 1 1 2 1 1 1 1 0 0 1 -2 -1 -1 -1 -1 -1 2 1 2 3 -1 1 2 3 -0 -0 -2 -4 -6 -9 -6 -6 -7 -7 -8 -8 -9 -9 -9 -10 -10 -9 -9 -9 -10 -10 -11 -10
6 6 6 6 6 2 2 0 2 1 1 1 0 1 0 -0 -1 -1 -0 -0 0 -1 -1 0 -0 -2 -0 1 0 0 -1 -2 -3 -3 -5 -7 -8 -7 -7 -7 -8 -9 -9 -9 -9 -9 -9 -9 -9 -9 -9 -10 -10 -10
7 6 6 6 4 3 -0 -1 0 0 1 1 0 -0 0 -1 -2 -0 -0 -2 -2 -3 -0 -0 -0 -0 -0 -1 -1 -1 -1 -2 -5 -4 -4 -5 -8 -7 -7 -8 -8 -8 -9 -9 -10 -10 -9 -9 -8 -8 -8 -9 -8 -8
5 5 5 4 1 1 0 -1 0 -1 -0 1 -0 -0 -0 -1 -3 -3 -3 -3 -4 -1 -1 -2 -1 -1 -1 -1 -1 -1 -3 -3 -3 -4 -5 -6 -6 -6 -7 -8 -7 -8 -8 -8 -8 -9 -8 -7 -7 -8 -8 -8 -8 -8
4 4 3 1 0 -1 -0 -1 0 0 -0 0 -1 0 -2 -3 -4 -2 -2 -1 -3 -3 -3 -3 -3 -2 -2 -1 -1 -2 -2 -3 -5 -4 -3 -4 -4 -5 -6 -6 -5 -5 -6 -6 -6 -6 -6 -6 -7 -7 -7 -8 -8 -8
3 -1 -3 -3 -1 -2 -2 -2 -0 -0 -1 -1 -1 -2 -1 -3 -3 -3 -2 -2 -2 -3 -3 -3 -2 -2 -1 -1 -2 -3 -2 -2 -4 -4 -4 -4 -4 -4 -4 -4 -4 -4 -4 -4 -5 -6 -6 -6 -7 -7 -8 -8 -8 -8
0 -1 -4 -5 -4 -4 -5 -6 -4 -2 -4 -4 -4 -5 -4 -4 -3 -3 -3 -4 -3 -2 -3 -3 -4 -3 -2 -3 -4 -3 -2 -1 -2 -3 -3 -2 -3 -4 -4 -4 -4 -4 -4 -5 -6 -7 -7 -7 -7 -8 -8 -8 -8 -9
-4 -5 -3 -5 -5 -3 -4 -4 -6 -5 -5 -4 -5 -6 -7 -7 -4 -3 -2 -3 -4 -3 -3 -3 -5 -7 -7 -6 -7 -7 -2 -0 -1 -3 -3 -2 -1 -2 -5 -5 -7 -5 -4 -4 -5 -6 -7 -8 -8 -8 -9 -9 -8 -9
-5 -5 -3 -1 -1 -1 -5 -5 -2 -4 -5 -3 -4 -1 -5 -3 -5 -4 -2 -5 -6 -5 -3 -3 -4 -5 -6 -5 -3 -3 -2 -2 -1 -2 -2 -2 -3 -3 -2 -4 -6 -3 -3 -4 -5 -5 -6 -7 -8 -8 -9 -9 -8 -9
-5 -4 -5 -6 -5 -4 -6 -7 -6 -4 -5 -4 -4 -3 -2 -3 -2 -4 -4 -4 -4 -3 -3 -3 -2 -2 -2 -3 -4 -4 -5 -4 -4 -5 -5 -5 -4 -4 -4 -4 -3 -4 -3 -4 -4 -5 -6 -6 -7 -8 -8 -8 -8 -9
-3 -4 -7 -8 -8 -3 -2 -2 -2 -2 -3 -4 -5 -5 -3 -3 -4 -4 -4 -4 -4 -5 -5 -6 -7 -6 -6 -6 -6 -6 -6 -5 -5 -5 -4 -6 -10 -5 -4 -4 -4 -4 -4 -4 -5 -6 -6 -6 -7 -7 -8 -8 -9 -9
-5 -8 -8 -8 -8 -4 -4 -4 -3 -4 -5 -4 -4 -3 -4 -5 -6 -5 -4 -4 -4 -6 -5 -5 -5 -5 -5 -6 -6 -6 -5 -5 -5 -5 -7 -9 -9 -5 -4 -4 -5 -5 -5 -6 -6 -7 -7 -7 -7 -8 -9 -10 -10 -11
-8 -8 -8 -8 -7 -6 -5 -5 -5 -4 -4 -4 -5 -3 -6 -7 -6 -6 -5 -5 -4 -4 -5 -5 -4 -4 -5 -5 -5 -5 -5 -5 -5 -5 -6 -6 -5 -5 -5 -5 -6 -6 -6 -6 -7 -7 -7 -8 -8 -9 -10 -11 -12 -12
-12 -9 -9 -7 -8 -10 -7 -7 -7 -8 -9 -4 -3 -4 -4 -4 -4 -9 -8 -6 -5 -4 -4 -4 -4 -5 -4 -3 -3 -4 -4 -4 -4 -5 -5 -6 -6 -6 -6 -6 -6 -7 -7 -7 -7 -8 -8 -9 -10 -10 -11 -12 -13 -13
-10 -9 -10 -9 -4 -6 -9 -9 -2 -5 -7 -9 -10 -6 -3 -3 -3 -13 -10 -9 -8 -6 -6 -6 -6 -5 -5 -5 -5 -5 -5 -5 -5 -5 -5 -6 -6 -6 -6 -7 -7 -8 -8 -8 -8 -9 -9 -10 -11 -11 -12 -13 -13 -14
Height
667 671 674 678 682 686 690 694 698 702 705 707 709 712 716 718 722 727 729 733 737 737 735 734 733 735 738 742 738 734 738 740 747 742 742 743 741 746 744 739 739 750 762 771 770 776 774 747 747 751 755 764 767 772
660 664 668 672 677 681 685 690 694 698 702 705 708 710 713 716 720 724 728 731 735 736 731 730 728 729 728 732 739 736 731 731 733 735 743 740 743 745 741 744 744 742 748 759 758 757 751 750 747 750 756 760 768 769
653 657 661 666 671 676 681 686 690 694 698 701 705 708 711 715 718 722 726 730 733 732 729 727 724 723 725 725 726 736 732 729 726 723 731 732 725 733 738 737 740 743 747 757 750 753 751 755 756 756 757 760 764 768
646 650 655 660 665 670 676 681 686 690 694 698 702 706 709 713 717 720 722 726 729 727 726 719 712 714 712 717 720 721 728 729 725 719 723 727 722 722 727 723 734 739 739 748 753 757 757 756 756 757 761 764 767 775
637 641 647 653 659 664 670 676 681 686 690 695 699 703 707 711 715 719 720 721 724 724 718 711 709 705 708 711 712 713 716 718 721 719 721 716 719 721 730 729 738 731 734 745 749 741 747 751 756 758 761 767 773 778
626 631 637 643 650 657 664 670 675 681 686 691 696 700 705 709 714 719 722 712 716 720 719 715 706 703 703 701 699 698 705 709 715 715 719 719 713 712 728 724 717 719 722 722 727 735 740 746 756 759 765 772 777 782
612 618 624 632 640 648 656 664 670 676 682 688 694 699 704 708 711 714 712 709 709 714 716 712 705 702 701 697 696 693 701 704 706 714 714 715 713 716 722 714 714 718 721 726 728 735 751 752 759 764 769 776 781 788
593 599 608 617 628 638 648 657 664 671 678 685 692 697 703 708 713 712 706 707 708 713 713 708 699 695 695 695 692 697 700 703 708 712 716 712 716 719 718 717 716 723 727 729 732 733 738 751 760 768 773 778 786 792
563 570 581 596 614 628 640 650 659 666 674 680 687 699 707 710 709 703 705 704 707 711 708 707 699 690 693 694 694 697 698 704 708 712 708 709 716 714 707 713 719 722 722 733 738 741 747 752 763 770 775 782 785 793
529 536 550 571 594 616 633 645 655 663 668 677 689 699 702 700 703 705 703 702 705 704 705 703 700 695 695 694 699 700 703 708 709 711 711 715 714 709 708 711 715 722 725 730 740 751 755 761 764 770 774 779 783 789
503 507 524 550 583 608 626 641 652 661 672 680 689 694 695 699 703 706 704 704 700 702 700 697 698 695 695 695 699 703 714 713 712 708 710 715 712 708 709 713 719 722 724 727 729 736 742 748 760 769 776 780 785 790
507 510 525 555 586 608 624 638 649 659 668 675 679 687 694 699 701 704 706 701 697 687 693 694 694 693 696 694 697 706 709 719 707 716 724 721 711 707 710 715 721 724 728 732 734 740 748 754 760 767 774 780 785 789
544 550 565 583 601 617 630 645 655 664 669 677 682 689 691 697 711 701 709 695 701 688 689 690 696 695 696 699 711 713 717 726 716 731 709 703 705 709 712 717 724 728 732 736 742 746 751 758 764 768 775 780 784 790
577 583 592 604 617 630 643 653 661 665 670 678 683 694 695 697 691 687 682 680 680 680 683 685 694 696 707 708 716 717 722 718 732 725 702 705 705 710 715 718 723 732 736 740 745 750 755 760 766 770 774 779 784 791
601 608 616 626 635 644 652 659 664 667 670 682 683 691 697 688 688 683 683 683 680 679 682 691 698 702 709 715 716 719 718 727 712 709 709 705 705 710 717 721 726 733 739 743 747 752 757 762 767 773 778 782 786 791
623 629 639 645 651 656 659 664 666 670 676 680 683 682 681 680 679 693 689 685 680 682 685 691 703 714 715 717 718 718 714 712 715 712 710 707 709 714 719 724 730 735 740 746 750 755 759 765 770 775 781 786 789 793
639 643 652 657 660 664 668 668 671 676 681 682 683 684 682 679 680 683 684 685 683 685 699 701 708 700 711 717 715 710 717 717 708 710 711 708 710 717 723 728 734 739 744 749 753 759 764 769 773 779 784 788 791 794
654 659 662 666 668 671 673 672 674 679 682 686 683 685 684 684 683 683 685 684 684 689 692 692 699 700 710 705 715 715 709 713 716 715 716 715 717 721 725 731 737 741 746 751 755 760 766 770 774 779 783 787 792 796
661 662 663 665 666 667 672 678 678 687 690 689 688 687 686 687 689 688 687 687 688 691 695 701 704 703 716 710 705 702 709 711 716 721 724 724 724 726 731 736 741 745 749 753 758 762 766 770 773 778 782 786 790 793
661 661 660 659 660 666 676 683 682 686 691 693 691 692 693 694 694 694 692 692 694 701 709 711 714 717 712 709 707 706 709 713 718 721 728 731 732 733 737 740 744 749 753 758 761 764 769 773 776 779 782 784 788 791
664 665 665 664 667 672 683 687 689 691 692 692 694 696 697 698 701 699 700 700 705 714 712 713 713 712 711 710 710 710 713 715 719 719 724 733 736 737 741 744 747 751 754 759 762 766 768 770 773 777 781 784 787 790
670 669 669 670 675 680 686 689 690 693 695 695 697 697 701 704 708 707 706 710 717 712 712 714 714 714 713 713 714 715 716 718 720 722 725 730 736 740 744 746 749 753 756 759 762 764 767 769 773 776 779 783 786 789
671 671 673 676 683 688 695 691 692 693 699 699 700 701 709 712 709 706 713 712 714 714 713 714 715 715 715 717 718 719 720 720 724 727 730 733 736 740 744 748 750 753 756 758 759 762 764 768 771 774 778 781 784 786
673 677 685 690 689 700 696 698 693 696 699 703 704 709 707 711 707 711 712 712 712 713 713 714 714 716 718 719 721 723 724 725 727 730 732 734 738 742 744 746 749 751 753 754 757 760 763 765 769 772 774 777 780 783
682 692 695 704 699 704 710 714 709 704 713 714 715 718 713 709 713 715 713 712 711 711 713 714 716 718 719 723 725 725 726 726 728 731 734 735 737 741 745 747 748 749 751 753 755 757 760 763 765 768 771 774 777 780
702 703 700 707 707 704 705 710 715 713 714 713 717 716 715 723 720 715 705 704 706 707 709 711 716 721 723 723 725 725 726 728 729 731 733 734 736 738 741 744 746 746 748 750 752 754 757 759 762 765 768 771 774 777
710 711 700 696 695 695 706 705 698 706 711 708 710 703 716 714 723 708 699 701 702 701 704 708 712 716 718 720 723 725 726 728 729 730 731 733 736 738 739 741 743 743 744 746 748 750 752 755 758 761 764 767 770 773
709 706 711 709 706 703 711 715 712 707 708 703 704 706 705 708 704 701 700 700 699 701 704 709 713 716 717 719 722 724 726 728 729 731 733 735 736 737 738 739 740 741 743 744 746 748 750 752 754 757 760 764 768 771
708 708 711 718 716 704 701 702 701 701 703 704 708 710 702 701 702 700 701 701 703 704 707 711 714 716 718 721 723 724 726 728 731 733 735 737 738 737 737 738 739 740 741 743 745 747 749 751 753 756 759 763 767 770
715 714 718 721 719 708 708 707 705 704 704 703 702 702 702 703 704 703 703 704 706 707 709 711 714 716 719 721 724 726 727 729 730 732 735 737 737 737 737 737 738 739 740 743 745 747 749 751 753 756 760 763 766 769
715 716 719 720 715 711 708 706 704 704 703 702 702 701 707 707 706 706 705 706 707 709 710 713 714 716 718 720 722 725 727 728 730 731 732 734 735 735 736 736 737 738 740 742 744 746 748 751 754 756 759 762 766 768
725 722 724 721 719 714 710 710 709 711 709 702 700 702 704 706 705 708 706 706 707 708 710 711 713 716 718 720 721 723 725 726 727 728 729 731 733 734 735 736 737 738 740 742 744 746 748 750 753 756 759 762 766 769
724 721 722 720 709 712 713 714 701 705 708 712 711 703 699 700 700 708 707 706 707 708 709 711 713 714 716 718 720 722 723 724 725 726 727 729 731 733 734 735 737 739 741 742 744 746 749 751 753 756 759 763 766 769
Wind_Speed
24 24 23 23 24 23 21 20 20 19 17 16 16 17 19 20 21 21 12 15 13 2 5 6 7 5 3 3 4 3 3 3 2 8 4 3 3 5 5 5 6 5 6 3 3 4 9 5 3 7 4 3 6 8
25 25 25 26 26 25 23 22 21 20 19 18 15 14 15 17 16 18 4 12 18 4 3 3 17 16 14 13 1 3 4 3 5 3 3 3 2 2 5 2 2 3 6 6 8 6 1 2 1 2 5 7 5 7
26 26 27 27 27 26 24 22 21 20 19 19 17 15 15 15 13 16 8 9 12 4 4 4 7 21 23 23 19 3 2 4 4 5 4 2 3 4 5 5 3 2 3 4 4 3 1 1 2 3 4 6 8 12
28 29 28 27 27 27 26 25 24 22 20 19 19 18 16 14 14 17 12 12 11 1 3 5 6 4 11 22 25 19 17 14 5 3 3 3 3 3 3 3 3 5 8 6 3 1 4 2 2 6 9 11 13 11
31 31 32 31 29 28 27 26 25 23 21 21 21 20 19 17 16 17 20 16 19 5 2 3 5 10 14 19 24 19 19 16 5 3 2 3 2 4 1 2 2 4 6 5 5 11 5 4 7 9 13 12 13 16
35 34 35 35 34 32 29 28 27 25 25 24 21 21 19 17 16 9 2 17 25 19 2 3 1 3 6 20 20 8 8 5 3 2 1 2 1 3 3 3 2 4 5 5 4 10 3 13 10 7 12 11 9 11
40 41 40 39 38 36 34 32 29 29 26 27 24 21 18 18 22 6 4 5 16 12 0 3 3 3 7 3 2 4 6 3 2 2 3 2 1 3 2 3 5 5 6 10 15 17 10 7 6 11 14 17 19 18
50 50 48 44 42 41 38 35 32 30 29 28 24 23 22 19 15 16 31 25 21 5 1 3 3 3 4 1 2 1 2 1 1 3 1 2 2 1 2 1 7 7 11 10 4 5 11 15 15 13 19 20 13 11
53 60 62 58 52 44 39 37 34 31 27 26 31 22 15 10 5 8 13 14 11 3 2 2 1 2 3 1 2 3 2 3 2 2 1 2 1 2 4 9 12 14 6 11 9 15 15 17 15 14 14 11 13 10
54 59 61 61 58 53 47 40 35 28 24 34 35 6 2 8 7 13 3 1 2 3 2 2 1 2 1 1 1 2 2 1 2 1 2 2 2 3 3 6 9 9 15 16 16 8 12 13 14 14 12 8 11 11
18 32 41 63 57 54 48 44 35 40 42 18 3 4 7 20 5 1 2 2 2 3 3 3 3 1 3 2 2 2 2 1 2 2 3 0 2 3 6 9 7 9 11 6 9 11 13 18 16 13 10 12 15 17
44 41 47 67 57 54 48 46 52 32 18 15 12 13 9 3 2 3 2 2 3 3 2 4 4 3 1 1 3 3 2 2 2 1 3 2 3 4 10 11 8 8 9 8 13 13 13 16 18 16 15 15 16 17
56 60 59 57 55 54 53 56 39 34 37 16 4 3 2 1 3 5 5 3 2 3 3 3 2 3 1 4 3 3 4 1 1 3 3 4 3 5 8 8 9 7 11 10 11 15 19 17 19 21 17 18 22 20
48 51 55 57 56 56 56 41 39 29 7 3 4 3 3 4 4 5 4 4 3 4 5 5 3 3 1 3 0 4 2 2 2 1 5 3 5 8 7 8 12 9 9 10 11 16 17 17 17 18 22 24 24 23
52 52 53 54 56 51 47 42 25 6 4 2 2 3 4 2 2 2 1 1 1 5 5 4 4 3 3 3 2 3 2 2 4 4 3 1 8 10 10 9 10 10 9 9 13 12 16 20 19 19 20 22 22 24
52 51 44 43 43 38 33 25 5 3 2 3 3 2 1 2 3 2 1 2 2 3 3 4 3 3 2 3 2 4 5 5 4 3 2 5 9 8 9 9 8 9 11 12 15 17 21 20 19 21 19 18 21 23
31 16 36 29 26 24 22 1 2 3 3 3 2 0 1 2 2 1 2 1 1 3 2 3 4 4 3 2 2 3 4 3 3 3 0 5 10 10 9 9 10 14 14 16 20 20 19 20 23 22 15 18 19 19
25 25 19 23 20 17 2 3 3 3 4 2 2 2 1 2 2 2 2 2 3 2 2 1 3 2 3 4 3 2 1 2 3 2 3 5 8 7 12 11 14 16 16 18 21 22 22 22 17 14 20 22 18 17
16 11 11 10 9 5 3 4 4 3 2 2 2 2 1 2 1 1 2 3 3 2 3 2 3 1 1 1 2 2 1 2 2 3 3 5 10 11 14 16 17 16 19 19 19 16 18 19 17 21 23 24 19 21
9 13 14 11 4 4 4 3 3 3 2 1 1 3 2 2 2 2 3 3 2 2 4 3 0 2 1 2 1 1 4 5 6 5 4 4 10 14 12 13 12 17 17 16 15 18 17 13 14 19 22 24 23 24
4 7 9 6 5 9 3 1 3 1 1 2 1 2 1 2 3 3 3 2 3 2 2 1 1 1 2 2 6 7 4 5 1 2 4 4 5 12 13 15 17 16 11 12 10 13 16 15 19 20 21 23 22 22
2 4 3 6 4 3 3 3 3 1 2 1 2 2 2 3 2 2 1 3 2 0 1 2 2 1 2 3 4 8 11 14 13 14 17 17 5 4 6 12 13 9 12 14 15 16 18 18 17 19 20 20 19 18
3 3 4 4 4 4 1 2 3 2 3 1 2 3 1 1 2 1 2 1 1 0 0 2 4 4 4 9 13 10 11 14 5 9 10 10 11 13 12 14 13 11 8 12 16 16 18 18 18 19 19 18 18 18
3 4 4 3 3 1 2 3 2 2 2 2 2 1 2 2 0 2 2 2 1 1 1 2 2 3 4 4 3 2 5 11 12 10 13 12 7 8 12 13 16 15 12 10 15 15 15 17 18 16 17 19 18 18
5 6 4 4 3 4 3 3 3 3 1 1 2 2 2 1 2 1 2 2 2 2 3 2 3 2 2 2 1 4 7 10 7 4 12 10 10 9 8 9 12 14 13 11 14 17 17 18 20 20 20 20 19 20
5 4 3 2 2 3 4 3 4 5 3 1 3 2 2 3 2 4 3 4 5 5 5 5 4 3 1 3 2 1 3 5 5 4 9 12 12 10 6 4 2 9 15 15 15 17 18 20 21 21 22 22 20 19
3 3 2 1 1 1 3 2 1 3 3 4 3 3 2 2 4 3 1 2 3 7 17 19 16 7 4 7 6 3 6 8 4 4 4 10 8 7 6 6 9 10 8 16 17 17 19 21 21 21 21 21 20 18
2 2 1 4 2 2 3 2 1 3 2 1 3 3 7 7 5 1 1 1 5 14 15 13 14 11 6 8 10 11 10 9 8 7 7 5 4 4 6 6 4 3 3 8 13 15 15 17 19 20 21 19 17 16
3 3 2 4 3 2 2 1 1 1 2 1 3 2 2 1 2 1 2 10 15 16 12 11 10 14 16 14 11 8 11 11 8 4 3 2 3 3 4 5 6 5 5 7 8 7 8 10 13 14 15 14 14 14
4 1 3 2 2 0 1 1 1 2 1 0 1 1 1 2 5 4 10 10 7 7 9 12 14 13 10 11 9 7 5 5 3 3 3 2 4 3 4 6 7 7 8 9 10 9 9 10 10 11 13 13 14 15
2 3 3 1 2 2 1 2 2 1 1 1 1 1 2 1 2 4 6 6 9 14 16 13 12 11 11 9 6 4 2 4 7 8 7 7 5 3 4 5 6 8 11 14 14 13 13 13 13 15 15 16 17 16
2 1 1 3 3 3 3 1 1 0 2 1 1 2 2 1 3 1 2 2 6 9 8 11 11 10 9 7 7 7 4 3 3 2 5 9 6 3 4 5 5 7 10 13 13 13 13 15 16 17 17 17 17 15
2 1 1 1 2 3 2 2 1 3 1 1 2 1 2 3 4 2 1 1 3 7 9 8 8 7 6 5 8 8 8 6 5 4 3 6 8 7 7 9 9 9 11 11 11 11 12 13 14 15 17 17 16 13
Wind_Direction
230 228 223 219 218 217 217 217 219 220 225 229 226 224 224 225 215 208 215 211 199 217 248 260 271 213 234 276 217 195 134 165 168 205 185 195 187 196 191 179 163 144 143 173 86 188 253 180 123 170 183 38 139 135
227 226 222 221 220 221 220 216 218 219 220 223 225 221 214 211 207 198 186 212 220 227 275 258 235 244 204 175 176 336 307 153 171 182 193 142 185 153 148 211 36 182 176 173 173 206 234 1 276 65 152 149 157 117
230 226 222 222 221 218 219 219 220 222 224 219 221 222 215 207 197 198 184 190 212 237 261 239 220 238 232 221 206 196 249 262 218 178 173 201 186 158 155 215 128 231 151 123 122 234 174 155 80 109 115 116 114 121
230 227 224 222 221 220 220 220 221 221 219 219 218 214 213 210 208 206 200 216 238 227 224 267 203 194 226 212 205 204 226 267 273 169 144 206 193 192 180 128 153 204 145 130 99 63 98 33 120 129 103 104 105 105
232 231 227 224 221 219 220 221 223 223 221 216 213 219 216 216 214 218 232 253 241 266 257 289 321 252 222 209 217 224 217 224 235 190 177 210 121 115 128 118 197 196 158 155 210 188 153 160 155 135 126 129 125 119
236 233 228 226 222 218 217 218 216 220 217 211 209 210 210 206 198 182 326 258 237 240 231 272 255 232 269 248 224 192 200 146 155 139 209 268 282 107 141 185 200 172 171 167 166 141 109 128 119 114 121 126 117 116
237 234 230 226 222 219 217 216 219 216 217 213 211 211 213 201 191 171 215 307 205 199 135 256 251 197 236 126 349 86 149 158 136 111 185 206 141 99 131 177 158 149 115 113 116 108 96 137 144 123 115 109 107 102
237 234 230 225 219 215 213 213 211 215 214 205 211 214 204 201 207 231 246 292 180 165 262 274 277 320 24 202 112 132 95 114 53 156 157 162 117 194 123 166 102 108 113 110 75 87 128 117 114 113 119 122 116 121
237 230 224 218 214 209 205 207 208 203 209 219 208 185 172 191 213 229 236 190 179 177 206 226 262 287 351 15 85 24 28 66 338 88 73 73 12 215 195 151 151 153 147 135 102 111 123 126 129 132 132 134 130 140
245 232 219 208 204 200 198 197 201 210 190 150 143 121 191 189 207 181 247 82 221 196 187 239 115 270 238 315 49 103 23 103 103 294 91 79 219 259 201 140 140 137 130 128 114 114 123 132 145 150 159 148 147 148
228 210 200 190 180 183 188 192 192 155 144 138 128 165 147 151 137 71 236 211 169 208 191 177 190 185 341 90 128 28 155 12 98 188 126 143 269 221 147 128 135 145 145 129 142 151 159 151 151 148 141 139 143 149
95 130 145 149 157 165 169 168 152 144 151 155 116 118 118 119 130 183 231 289 229 218 166 150 166 133 7 26 87 356 96 40 128 122 83 245 241 166 147 141 133 129 122 115 131 128 128 138 144 140 141 143 145 143
103 110 121 132 140 146 147 146 145 141 119 117 93 104 149 103 79 188 200 212 242 184 183 176 84 109 37 47 62 69 67 196 73 52 230 221 167 138 137 121 107 102 107 105 99 110 118 118 131 138 135 140 149 152
104 112 121 128 133 137 139 141 144 136 138 124 120 129 173 184 226 196 197 189 218 135 129 116 65 87 22 53 78 81 273 57 46 293 235 222 174 150 135 132 126 135 126 123 124 125 125 125 120 138 150 156 156 155
108 113 119 125 131 134 141 142 133 86 77 95 98 166 208 225 240 257 246 67 247 136 110 94 58 73 24 86 22 98 97 261 214 231 238 207 143 141 134 134 127 126 127 126 132 126 126 131 133 138 154 159 162 159
109 111 116 127 135 139 142 145 41 91 78 92 58 107 218 187 185 359 43 97 359 113 82 62 102 88 230 130 89 202 164 223 251 234 271 132 135 132 129 125 115 120 123 121 124 130 135 139 141 146 149 159 165 166
109 106 116 118 134 132 153 21 65 56 89 46 37 68 264 61 89 136 146 173 319 81 106 120 111 189 108 88 222 190 209 231 313 310 293 146 140 129 118 115 121 126 124 129 129 135 137 143 144 143 142 163 167 173
91 116 109 120 129 168 170 31 73 58 48 11 28 352 358 12 57 35 54 340 83 92 86 105 127 138 168 182 253 260 201 74 37 43 34 80 104 111 128 128 127 131 130 135 138 141 145 146 149 157 165 165 165 168
84 106 81 95 149 144 84 31 47 89 43 343 328 349 17 56 24 346 48 29 59 86 101 48 73 65 245 274 281 285 111 118 122 63 46 26 90 111 112 118 126 128 136 143 147 151 160 166 172 171 170 170 171 174
62 57 57 43 63 78 67 21 47 78 78 319 16 24 31 34 346 3 35 27 53 61 46 49 98 276 252 286 306 96 104 117 132 108 71 56 84 112 121 134 131 137 132 140 147 157 158 162 179 182 183 182 179 183
357 20 30 47 53 59 87 26 57 80 109 59 17 47 357 28 50 28 9 346 60 63 104 97 52 327 359 52 86 90 106 131 146 140 143 130 108 117 116 129 137 138 138 147 153 171 176 184 186 189 191 195 198 199
27 34 47 41 74 52 73 13 113 147 86 123 56 60 40 19 360 344 262 54 81 129 139 152 115 26 42 51 82 98 121 106 94 93 101 121 127 126 128 143 137 141 157 174 180 187 200 201 194 194 197 202 203 203
95 47 55 41 70 47 260 24 71 21 102 276 24 73 26 319 230 54 74 65 164 214 169 99 97 79 85 89 102 100 104 108 98 110 122 109 128 140 144 165 167 162 168 195 206 206 205 201 198 201 207 206 204 205
55 56 54 61 66 182 358 17 40 73 53 54 95 122 212 212 302 63 138 189 203 160 100 115 121 86 73 77 64 54 77 119 114 115 137 129 132 156 173 182 196 207 210 208 201 201 198 196 198 204 202 198 202 204
73 341 73 356 343 68 60 21 1 58 107 227 88 322 275 42 74 73 209 209 174 162 143 129 95 77 124 101 104 106 115 142 140 142 173 161 138 140 171 200 213 220 217 195 190 196 198 201 202 201 201 201 203 204
73 301 84 199 293 118 185 137 184 179 141 137 224 266 46 91 84 238 234 173 181 188 180 172 158 139 188 191 168 184 186 161 138 121 177 181 176 170 177 179 187 228 222 223 210 200 203 203 201 204 206 210 212 211
56 319 313 339 295 92 23 352 85 106 148 172 194 164 87 133 237 249 181 188 175 192 188 185 172 162 167 184 192 146 148 160 153 133 139 189 203 215 218 196 212 252 239 218 216 216 210 207 206 207 204 210 211 213
187 39 38 305 33 15 135 32 85 199 245 281 102 181 175 192 207 250 189 156 140 134 143 162 180 190 186 168 161 150 130 129 125 116 105 113 158 205 218 231 238 223 222 224 224 223 223 220 215 209 205 204 205 208
23 342 78 3 5 37 42 14 326 0 347 104 164 211 186 57 351 23 78 131 136 121 115 115 112 130 124 121 132 139 138 142 133 146 210 264 343 249 224 218 208 202 200 197 197 211 219 219 210 205 201 200 201 200
325 29 58 16 61 282 258 336 342 315 292 296 251 98 57 40 5 69 131 134 140 145 151 144 143 137 133 131 124 110 136 176 158 153 165 210 245 278 244 226 214 197 189 185 171 164 177 175 174 170 173 173 176 172
294 37 14 356 267 261 321 314 282 277 233 222 264 123 174 212 48 59 107 110 129 138 140 142 134 144 145 137 141 143 190 231 239 239 242 248 254 265 234 211 204 202 195 187 180 178 174 172 171 168 171 173 174 173
359 112 88 316 295 284 312 313 318 310 321 275 191 123 136 92 231 229 356 163 159 153 167 176 158 176 182 192 199 201 186 210 226 233 242 230 223 216 195 192 190 194 193 189 185 180 178 178 176 177 176 174 172 173
313 341 261 277 292 330 292 48 265 290 220 240 263 247 176 174 238 242 71 112 172 169 150 149 154 160 172 201 224 234 233 229 231 226 220 203 213 225 219 202 187 179 175 169 166 168 171 174 174 174 171 168 168 171